Temperature
10 8 8 9 9 10 11 11 11 11 12 12 11 11 12 12 12 12 13 14 14 14 15 14 15 15 14 14 14 14 14 14 13 13 13 13 12 12 12 12 12 11 11 11
8 8 9 10 10 10 11 10 10 11 12 12 11 11 11 11 11 13 13 13 14 14 14 14 14 14 14 14 14 14 14 13 13 13 13 12 12 12 12 12 11 11 11 11
8 9 10 10 10 10 10 10 10 10 11 11 11 10 11 11 12 13 13 14 14 14 14 14 13 13 14 14 13 13 13 13 13 12 12 12 12 12 11 11 11 11 10 10
8 9 10 10 10 10 10 11 11 11 10 9 10 9 10 10 11 11 12 13 13 14 14 13 13 13 13 13 13 13 13 12 12 12 12 11 11 11 11 11 10 10 10 10
9 10 10 10 10 11 10 11 11 10 9 9 9 9 9 9 10 11 11 12 13 14 13 13 13 13 13 13 13 12 12 12 11 11 11 11 11 11 10 10 10 10 10 10
9 10 10 10 11 11 11 10 10 8 8 8 8 8 9 9 10 11 10 12 13 13 13 13 13 12 12 12 12 12 11 11 11 11 11 10 10 10 10 10 10 10 9 9
9 9 10 10 10 10 10 9 9 8 8 8 8 8 9 10 10 11 11 11 12 13 12 12 12 12 12 12 11 11 11 11 11 10 10 10 10 10 10 10 9 9 9 9
8 8 9 9 10 9 9 9 8 8 8 8 8 8 9 10 10 11 12 12 12 12 12 12 12 12 11 11 11 11 11 10 10 10 10 10 10 9 9 9 9 9 9 8
8 8 9 9 10 9 9 8 9 8 7 8 8 8 9 10 10 10 10 10 10 11 11 11 11 11 11 11 11 10 10 10 10 9 9 9 9 9 9 8 8 8 8 8
8 8 8 9 10 10 9 8 7 8 8 8 8 8 9 10 9 9 8 9 10 10 11 11 11 11 11 10 10 10 10 9 9 9 9 9 8 8 8 8 8 8 8 7
8 7 7 8 8 8 8 8 8 7 7 7 8 8 9 9 9 9 8 9 10 10 11 11 10 10 10 10 10 9 9 9 9 9 8 8 8 8 7 7 7 7 7 7
7 6 6 7 8 8 8 8 7 7 7 6 6 8 10 9 9 9 9 10 10 10 10 10 10 10 10 9 9 9 9 8 8 8 8 7 7 7 7 7 6 6 6 6
7 6 6 6 7 7 7 7 7 7 6 6 6 8 9 8 8 9 9 10 10 10 10 10 9 9 9 9 9 8 8 8 8 7 7 7 7 6 6 6 6 6 5 5
8 6 6 7 7 6 6 7 7 7 6 6 6 8 9 9 8 8 9 9 9 9 9 9 9 9 8 8 8 8 7 7 7 7 6 6 6 6 5 5 5 5 5 5
7 6 5 6 7 7 7 7 7 7 6 6 7 7 8 8 8 8 9 9 9 9 9 9 8 8 8 8 8 7 7 7 6 6 6 6 5 5 5 5 4 4 4 4
5 5 5 5 6 6 6 7 7 7 7 7 7 7 8 8 9 8 8 8 8 8 8 8 8 8 7 7 7 7 6 6 6 6 5 5 5 4 4 4 4 4 3 3
4 4 5 5 5 6 5 6 7 6 7 7 7 8 8 7 7 7 8 8 8 8 8 8 7 7 7 7 6 6 6 6 5 5 5 4 4 4 4 3 3 3 3 3
4 4 4 4 4 4 6 7 7 7 7 7 7 7 7 7 8 8 8 8 8 8 7 7 7 7 6 6 6 5 5 5 4 4 4 3 3 3 3 3 3 2 2 2
4 4 4 3 4 4 6 6 6 6 6 6 7 7 7 7 7 6 7 8 7 7 7 6 6 6 6 5 5 5 4 4 4 3 3 3 2 2 2 2 2 2 2 2
4 4 4 3 4 4 6 6 7 7 5 6 6 6 6 6 5 5 6 6 6 6 6 6 5 5 5 4 4 4 4 3 3 3 2 2 2 2 1 1 1 1 1 1
3 3 3 3 3 4 5 6 7 6 5 5 5 6 5 5 5 6 5 5 5 5 5 5 4 4 4 4 3 3 3 3 2 2 2 1 1 1 1 1 1 0 0 0
3 3 3 3 3 4 4 5 5 5 5 5 5 6 5 5 5 5 5 4 4 4 4 4 4 4 3 3 3 3 2 2 2 1 1 1 1 0 0 0 -0 -0 -0 -0
2 3 3 3 4 4 4 4 5 5 5 5 5 5 5 5 4 4 4 4 3 3 3 3 3 3 3 2 2 2 1 1 1 1 0 0 -0 -0 -0 -1 -1 -1 -1 -1
2 2 2 2 2 3 4 4 5 5 5 5 5 5 5 4 4 3 3 3 3 3 3 2 2 2 2 2 1 1 1 0 0 0 -0 -0 -1 -1 -1 -1 -1 -2 -2 -2
1 1 1 1 2 2 3 4 4 5 4 4 4 4 4 4 3 3 3 2 2 2 2 2 2 2 1 1 1 0 -0 -0 -0 -1 -1 -1 -1 -1 -2 -2 -2 -3 -3 -3
0 1 1 2 2 2 2 4 4 4 4 4 3 3 3 3 3 2 2 2 2 2 2 1 1 1 0 -0 -0 -1 -1 -1 -1 -1 -2 -2 -2 -2 -2 -3 -3 -3 -3 -3
Wind_Speed
5 4 10 13 13 7 5 6 7 7 5 4 9 13 14 10 8 9 10 9 9 9 7 5 4 4 3 3 4 4 4 3 3 2 2 2 2 2 2 2 3 3 2 3
3 11 12 8 8 9 8 7 8 7 5 5 8 13 12 10 9 11 12 11 11 8 5 4 4 3 3 4 4 4 4 4 3 3 3 3 3 2 2 2 2 3 3 2
12 7 8 10 9 11 11 10 9 7 5 4 5 9 8 7 6 8 9 10 10 11 9 7 5 4 3 4 4 4 4 4 3 3 1 0 0 1 1 2 2 3 3 3
9 8 7 9 11 11 10 8 8 6 3 5 2 6 8 6 7 7 8 8 9 9 8 7 6 5 4 4 3 3 3 3 3 3 2 2 2 3 4 3 3 3 3 4
8 6 9 11 11 10 7 5 5 5 4 5 4 5 9 4 7 9 9 9 8 8 9 9 7 7 5 4 3 2 2 2 2 2 3 3 2 3 2 2 3 3 3 3
6 4 6 8 5 8 5 3 1 1 1 6 8 8 8 6 9 8 8 7 8 7 7 7 6 5 4 3 3 3 2 1 1 1 1 2 3 2 1 2 2 3 2 3
5 6 5 4 4 4 6 5 1 2 3 8 6 7 10 9 9 9 9 9 8 7 8 7 6 5 4 4 3 4 3 1 0 1 1 2 2 3 3 3 3 3 2 3
7 7 8 6 8 8 9 9 7 7 6 5 4 8 9 8 6 5 6 7 6 6 7 7 7 7 6 5 4 3 3 2 1 0 1 1 1 2 2 3 3 3 3 4
8 6 3 6 5 9 8 8 6 4 2 3 6 7 8 3 1 2 4 6 6 6 6 7 6 6 6 5 4 4 4 2 1 1 1 1 1 1 2 2 2 3 3 3
6 4 3 3 3 3 6 7 5 5 5 6 6 6 6 6 5 4 5 6 6 5 5 5 5 5 5 4 3 3 3 2 1 1 1 1 1 2 2 2 3 3 4 4
4 5 3 4 8 10 7 6 5 5 4 5 5 7 6 8 8 8 7 7 6 6 6 6 5 4 3 3 2 2 2 1 0 0 1 1 2 2 2 2 3 3 4 4
5 4 4 6 4 5 7 8 7 6 6 5 4 8 5 5 5 7 6 5 5 6 5 5 5 4 3 3 2 2 1 1 0 0 1 1 2 2 2 3 3 3 4 4
6 5 3 1 2 2 5 5 6 4 3 5 5 7 4 1 1 3 5 4 4 5 5 4 4 4 4 3 2 1 1 0 0 1 1 2 2 3 3 3 4 4 4 4
5 5 7 10 7 6 6 8 9 7 6 6 9 9 7 5 4 4 4 4 4 5 6 6 5 4 4 3 2 1 0 0 0 1 1 2 3 3 3 4 4 4 4 5
4 5 6 6 4 5 7 10 12 13 11 9 9 11 12 9 7 5 4 4 4 5 5 6 5 4 3 2 1 1 0 1 1 1 2 3 3 3 3 4 4 4 5 5
2 4 3 4 6 6 8 11 13 14 12 12 11 13 11 7 5 5 6 7 7 7 7 6 5 4 3 3 1 0 0 1 1 1 2 3 3 4 4 4 5 5 5 6
3 4 4 4 3 2 10 13 14 10 10 10 14 14 8 6 8 8 8 8 8 7 6 6 5 4 3 3 2 1 0 1 1 2 3 3 3 4 5 5 5 6 6 6
6 5 3 2 2 9 9 6 10 12 12 12 10 8 8 8 6 4 5 7 7 6 5 4 4 3 2 2 1 1 1 1 1 2 3 3 4 4 5 5 6 6 6 6
8 7 4 4 5 8 8 5 7 8 8 7 10 9 7 4 2 1 1 3 5 5 4 4 3 3 2 2 1 2 1 1 2 3 3 4 4 4 5 6 6 6 6 6
7 7 5 5 5 7 6 4 3 4 5 4 5 7 5 5 3 4 1 3 4 4 4 4 3 3 2 1 1 1 1 1 3 3 4 4 4 4 5 6 6 5 5 6
5 5 8 7 7 7 5 3 3 5 6 2 3 4 5 5 5 4 4 4 4 4 3 4 3 2 1 1 2 0 1 2 3 3 3 3 4 4 5 5 5 5 6 5
7 6 6 6 6 7 3 2 4 4 1 0 0 2 4 4 4 5 5 5 4 3 3 3 3 1 1 1 1 0 2 3 2 2 3 4 4 4 4 5 5 5 5 5
5 5 4 5 5 2 1 2 2 1 1 1 1 2 4 4 4 4 4 4 3 3 2 2 2 1 1 1 1 1 3 3 2 2 3 4 4 4 4 4 5 5 4 4
2 1 2 3 4 3 3 2 1 1 2 1 1 2 4 5 5 4 3 2 2 2 2 2 2 1 1 1 1 1 2 2 1 2 4 4 4 4 4 4 4 4 4 5
4 3 3 5 5 3 3 3 3 1 1 1 1 1 3 5 5 4 3 2 2 1 1 2 2 2 2 1 2 2 2 1 2 3 3 4 4 4 4 4 4 5 4 5
4 5 6 7 6 4 4 3 2 2 2 3 2 1 1 4 4 3 3 2 2 2 1 1 1 1 1 1 2 3 2 1 2 3 3 3 3 3 4 4 5 7 7 10
Wind_Direction
179 176 209 207 203 210 197 204 237 248 248 243 246 258 266 261 246 240 237 231 226 228 230 210 192 175 167 172 172 181 182 192 177 178 191 199 219 227 229 241 244 232 235 236
170 229 226 205 202 220 230 244 257 275 261 246 260 266 267 254 237 230 226 223 221 221 219 205 187 173 170 182 188 188 187 192 192 197 207 208 207 221 224 245 255 245 237 235
205 224 203 201 209 213 228 226 236 249 302 296 290 286 269 261 247 240 227 219 214 204 202 199 188 185 177 186 189 189 192 190 196 193 185 180 65 343 286 272 259 253 237 227
228 235 210 206 215 200 232 222 214 228 252 269 233 282 272 258 266 249 237 225 214 203 193 189 180 181 184 195 188 186 196 187 192 181 171 176 205 235 244 244 249 263 254 244
223 209 201 214 215 193 210 198 202 214 213 266 235 245 276 262 252 246 238 227 212 198 187 185 181 181 182 175 167 167 179 183 189 185 182 184 216 230 248 249 249 258 262 251
233 228 206 206 205 191 175 112 70 69 135 254 221 209 269 232 228 240 232 219 203 188 181 178 170 160 165 163 156 152 152 164 165 168 185 194 211 227 245 265 257 258 259 251
230 238 224 180 159 173 158 139 159 257 231 244 200 208 250 242 235 226 212 207 195 181 171 167 165 165 168 167 173 167 156 167 178 131 203 215 218 212 222 240 241 252 257 256
198 231 212 192 187 182 186 171 182 203 220 257 223 228 252 258 255 228 200 187 181 177 174 175 177 175 174 178 181 169 161 172 197 166 266 276 247 229 238 238 232 239 250 255
193 227 210 195 179 159 169 196 182 163 209 251 252 268 294 283 280 189 162 162 180 187 182 180 178 176 176 177 179 173 169 173 190 203 253 315 296 267 268 270 261 259 260 264
171 211 217 180 137 173 169 156 144 172 192 236 265 256 243 234 217 198 180 179 186 191 187 182 178 181 179 174 168 153 156 173 209 225 246 329 310 293 285 288 279 275 274 271
184 183 197 174 192 186 170 178 178 175 191 192 243 258 231 213 204 194 197 194 187 192 191 185 180 173 164 154 148 145 131 114 20 322 334 344 322 310 305 299 293 287 287 282
182 163 204 227 243 202 188 187 171 188 219 202 218 266 282 232 210 189 193 196 195 190 186 179 172 156 147 149 146 136 125 97 285 326 1 341 328 327 325 313 306 303 298 295
168 163 162 279 282 198 207 201 189 173 169 194 210 263 319 5 169 190 188 195 193 186 179 170 165 163 163 162 150 133 131 180 321 20 13 346 334 327 314 306 304 304 300 298
171 178 198 206 211 186 212 220 202 188 207 221 227 250 281 280 256 239 220 203 194 192 183 177 176 179 177 174 165 148 158 307 10 26 4 336 319 309 305 303 303 302 300 299
165 200 219 240 234 199 219 223 211 213 212 216 234 238 247 244 241 235 225 211 200 194 190 185 180 181 179 175 174 139 340 343 14 8 337 317 314 314 309 309 307 305 303 301
168 192 194 248 237 227 244 237 224 226 226 232 243 253 251 243 234 235 222 207 206 207 200 190 181 176 181 192 199 186 331 332 360 335 308 315 324 323 315 309 308 308 305 301
185 173 180 238 226 235 246 227 218 215 217 215 234 244 241 232 227 222 216 207 202 201 192 181 177 177 185 193 184 176 220 343 358 321 315 321 322 324 319 315 315 308 306 302
187 176 186 201 169 232 246 219 206 217 230 223 228 235 224 221 225 225 212 197 194 180 173 171 167 163 167 156 141 124 65 6 333 315 313 316 320 318 319 317 311 307 301 296
197 181 185 189 218 261 278 245 195 201 245 235 228 235 232 208 121 343 281 170 169 167 164 166 165 153 138 133 121 89 29 342 322 306 303 309 315 317 320 318 313 308 303 298
187 181 194 197 210 233 249 259 215 156 256 261 216 220 206 151 179 235 192 124 119 122 130 131 123 114 113 112 107 105 300 306 293 294 302 312 316 317 315 311 309 308 302 297
177 192 211 218 229 252 267 280 123 177 238 267 200 190 170 177 198 174 140 116 113 114 118 118 115 117 138 141 117 141 287 285 292 305 317 319 319 313 308 310 313 316 315 311
184 190 203 201 221 243 284 117 171 215 269 290 165 161 149 151 136 132 132 125 117 111 106 108 107 93 50 96 108 50 292 294 309 317 318 317 316 318 325 323 320 320 321 322
199 196 191 202 221 259 215 195 209 168 179 244 172 154 140 137 136 133 134 134 133 123 115 112 120 99 0 6 109 249 290 302 318 327 319 317 320 321 322 319 319 323 326 324
255 200 177 241 255 257 269 277 283 200 188 196 167 156 144 143 143 141 142 136 126 120 131 136 132 134 309 321 319 265 288 302 313 313 312 315 319 321 323 321 320 321 323 321
225 198 207 243 263 282 266 247 237 207 155 133 112 144 157 148 153 155 155 162 169 177 179 171 177 204 253 300 314 307 307 312 307 307 310 314 317 315 315 317 312 312 301 304
214 204 207 233 227 213 243 260 242 209 198 172 155 141 140 149 158 156 163 177 185 194 188 195 200 229 264 292 307 315 318 310 302 309 311 310 312 314 315 316 320 319 319 320
Height
1473 1477 1476 1473 1475 1475 1476 1478 1478 1475 1470 1472 1471 1467 1461 1458 1459 1458 1457 1457 1457 1457 1458 1459 1461 1462 1463 1464 1465 1466 1467 1468 1468 1468 1468 1468 1468 1468 1469 1469 1469 1470 1470 1470
1475 1473 1467 1469 1472 1474 1475 1477 1476 1473 1469 1469 1468 1463 1457 1454 1452 1451 1450 1451 1452 1453 1454 1455 1456 1458 1459 1461 1462 1463 1464 1464 1465 1465 1465 1465 1465 1465 1465 1466 1466 1466 1466 1466
1468 1464 1463 1467 1470 1472 1472 1474 1474 1474 1470 1468 1468 1463 1456 1449 1447 1446 1445 1445 1446 1448 1449 1451 1453 1454 1456 1457 1458 1459 1460 1461 1461 1462 1462 1462 1461 1461 1461 1461 1461 1461 1461 1461
1465 1460 1460 1463 1464 1467 1470 1465 1467 1470 1474 1476 1472 1472 1456 1449 1446 1443 1441 1441 1441 1443 1445 1447 1449 1451 1452 1454 1455 1456 1457 1458 1458 1459 1458 1458 1457 1457 1457 1457 1457 1457 1458 1457
1458 1455 1456 1458 1457 1460 1463 1461 1464 1467 1472 1476 1472 1474 1457 1449 1445 1440 1437 1436 1436 1438 1440 1443 1445 1447 1449 1451 1452 1453 1454 1455 1455 1455 1455 1455 1454 1454 1453 1453 1453 1453 1453 1453
1453 1451 1452 1451 1452 1455 1458 1462 1466 1470 1474 1476 1468 1472 1458 1449 1439 1434 1433 1432 1433 1435 1437 1440 1442 1445 1447 1448 1449 1450 1451 1451 1452 1452 1452 1452 1451 1450 1450 1449 1449 1448 1448 1448
1451 1449 1447 1448 1452 1454 1457 1466 1475 1476 1479 1471 1462 1464 1451 1436 1430 1428 1429 1429 1430 1432 1434 1437 1439 1442 1443 1445 1446 1447 1448 1448 1448 1448 1448 1448 1447 1447 1446 1445 1445 1444 1444 1443
1452 1451 1444 1444 1446 1451 1454 1459 1469 1473 1473 1467 1459 1458 1442 1429 1425 1424 1426 1427 1429 1431 1432 1434 1437 1439 1441 1443 1444 1444 1444 1445 1445 1445 1445 1445 1444 1443 1443 1442 1441 1441 1440 1439
1446 1446 1440 1440 1441 1445 1452 1455 1456 1464 1467 1467 1459 1449 1436 1426 1424 1424 1425 1427 1428 1429 1431 1433 1435 1437 1439 1440 1441 1442 1442 1442 1442 1442 1442 1441 1441 1440 1439 1438 1437 1436 1435 1435
1439 1444 1440 1439 1440 1442 1445 1449 1458 1462 1465 1463 1455 1449 1440 1428 1426 1425 1425 1425 1426 1428 1430 1431 1433 1435 1436 1438 1439 1439 1440 1440 1440 1439 1439 1438 1437 1436 1435 1434 1433 1432 1431 1430
1436 1442 1442 1440 1440 1440 1444 1448 1449 1455 1458 1460 1456 1445 1425 1423 1421 1423 1423 1423 1425 1426 1428 1430 1431 1433 1434 1436 1437 1437 1437 1437 1437 1436 1435 1434 1433 1432 1431 1430 1428 1427 1426 1425
1433 1439 1442 1440 1435 1434 1436 1439 1445 1452 1455 1455 1455 1441 1419 1419 1418 1419 1421 1423 1424 1425 1427 1428 1430 1431 1432 1433 1434 1434 1434 1434 1434 1433 1432 1431 1430 1428 1427 1425 1424 1423 1421 1420
1429 1436 1442 1442 1441 1438 1437 1437 1439 1443 1448 1452 1451 1437 1419 1418 1418 1419 1420 1421 1423 1424 1425 1427 1428 1429 1429 1430 1431 1431 1432 1431 1430 1429 1428 1427 1426 1424 1422 1421 1419 1418 1416 1415
1424 1430 1432 1432 1429 1432 1435 1434 1434 1440 1444 1445 1440 1431 1423 1420 1418 1419 1419 1420 1421 1422 1423 1424 1425 1426 1427 1428 1428 1428 1428 1428 1427 1426 1425 1423 1422 1420 1418 1416 1415 1413 1411 1409
1421 1427 1427 1425 1423 1426 1427 1427 1429 1431 1432 1435 1429 1426 1419 1417 1416 1416 1417 1418 1419 1420 1421 1422 1423 1424 1424 1425 1426 1426 1426 1425 1424 1423 1422 1420 1418 1416 1414 1412 1410 1408 1406 1404
1420 1424 1425 1425 1422 1423 1423 1422 1422 1423 1423 1424 1422 1419 1412 1413 1414 1414 1414 1415 1416 1417 1418 1419 1420 1421 1422 1423 1423 1423 1422 1422 1421 1420 1418 1416 1414 1412 1409 1407 1405 1402 1400 1398
1421 1423 1426 1426 1423 1423 1423 1414 1414 1415 1414 1415 1415 1411 1409 1411 1411 1411 1411 1412 1412 1413 1415 1416 1417 1419 1420 1420 1420 1420 1419 1419 1418 1416 1415 1413 1410 1408 1405 1403 1400 1397 1394 1392
1419 1421 1425 1426 1426 1427 1410 1402 1403 1405 1405 1405 1405 1404 1404 1405 1407 1408 1408 1409 1409 1411 1413 1414 1415 1416 1417 1418 1417 1417 1417 1416 1415 1413 1411 1409 1407 1404 1401 1398 1396 1393 1390 1387
1412 1417 1422 1424 1424 1416 1406 1401 1400 1403 1402 1400 1401 1401 1401 1403 1405 1407 1407 1407 1408 1410 1411 1412 1413 1414 1415 1415 1415 1414 1414 1413 1412 1410 1408 1406 1403 1400 1397 1394 1391 1388 1385 1382
1409 1412 1418 1419 1418 1413 1401 1396 1394 1398 1403 1397 1397 1397 1398 1401 1407 1407 1405 1406 1407 1408 1409 1410 1411 1412 1412 1412 1412 1411 1411 1410 1408 1407 1404 1402 1400 1397 1394 1390 1387 1384 1381 1377
1409 1411 1412 1413 1413 1406 1398 1394 1394 1404 1401 1396 1394 1394 1396 1398 1400 1402 1403 1405 1406 1407 1408 1409 1410 1410 1410 1410 1409 1408 1407 1406 1405 1403 1401 1398 1396 1393 1390 1387 1383 1380 1376 1373
1405 1407 1408 1409 1409 1405 1395 1395 1397 1397 1395 1394 1393 1393 1395 1396 1398 1400 1402 1403 1404 1405 1406 1407 1407 1408 1408 1407 1407 1405 1404 1403 1401 1399 1397 1395 1392 1389 1386 1383 1379 1376 1372 1369
1401 1401 1401 1402 1401 1396 1394 1393 1393 1394 1394 1394 1393 1394 1395 1396 1397 1399 1401 1402 1404 1404 1405 1405 1405 1405 1405 1405 1404 1403 1401 1400 1397 1395 1393 1391 1388 1385 1383 1379 1376 1372 1369 1366
1400 1398 1399 1400 1396 1394 1393 1392 1392 1393 1393 1393 1393 1394 1394 1395 1397 1398 1400 1401 1402 1402 1403 1403 1403 1402 1402 1402 1401 1400 1398 1396 1394 1392 1390 1387 1385 1382 1379 1376 1373 1370 1366 1363
1396 1397 1397 1397 1394 1392 1391 1391 1391 1392 1392 1392 1393 1393 1394 1394 1396 1397 1398 1399 1399 1400 1400 1400 1400 1399 1399 1398 1397 1396 1395 1393 1391 1389 1387 1384 1381 1379 1376 1373 1370 1367 1364 1362
1393 1394 1394 1392 1390 1391 1390 1389 1390 1390 1390 1391 1391 1392 1393 1394 1394 1395 1396 1397 1397 1397 1397 1397 1397 1396 1396 1395 1394 1393 1391 1390 1388 1385 1383 1381 1378 1376 1373 1370 1367 1364 1362 1359